Location: Complexul Astronomic Baia Mare
(47.6577°N, 23.5639°E)
Time: 06:48:57
(UTC+03:00)

ISS - Pass Details

Date: 17 May 2017
Orbit: 402 x 408 km, 51.6° (Epoch: 29 May)

Event Time Altitude Azimuth Distance (km) Brightness Sun altitude
Exits shadow 04:13:37 - 281° (W) 1,674 -1.0 -12.8°
Reaches altitude 10° 04:14:09 10° 283° (WNW) 1,466 -1.3 -12.7°
Maximum altitude 04:17:17 40° 355° (N) 615 -2.6 -12.4°
Drops below altitude 10° 04:20:24 10° 67° (ENE) 1,463 0.1 -12.0°
Sets 04:22:34 0° 75° (ENE) 2,322 1.1 -11.8°
